Location: Warwick
(41.7000°N, 71.4170°W)
Time: 08:58:56
(UTC-04:00)

BREEZE-M DEB (TANK) - Visible Passes

Search period start: 30 October 2014 00:00
Search period end: 08 November 2014 23:00
Orbit: 284 x 16039 km, 49.5° (Epoch: 29 October)

Date Brightness Start Highest point End Pass type
(mag) Time Alt. Az. Time Alt. Az. Time Alt. Az.
30 Oct 8.7 15:16:14 10° SW 15:57:35 87° NW 18:41:40 11° E visible
30 Oct 8.3 20:40:55 10° WNW 23:02:03 68° WSW 23:32:33 57° SSW visible
31 Oct 8.7 15:31:06 10° WSW 16:16:41 84° NNW 18:56:32 14° E visible
31 Oct 8.3 20:58:09 10° WNW 23:16:31 63° WSW 23:47:26 53° SSW visible
01 Nov 8.6 15:46:04 10° WSW 16:36:56 82° NNW 19:11:28 16° E visible
01 Nov 8.3 21:15:29 10° WNW 23:30:13 58° W 00:02:23 48° SW visible
02 Nov 8.6 15:01:08 10° WSW 15:58:37 80° NNW 18:26:28 19° ESE visible
02 Nov 8.4 20:32:57 10° NW 22:43:13 53° W 23:17:25 44° SW visible
03 Nov 8.5 15:16:16 10° WSW 16:22:03 79° N 18:41:33 21° ESE visible
03 Nov 8.4 20:50:32 10° NW 22:55:35 48° W 23:32:31 39° SW visible
04 Nov 8.4 15:31:30 10° W 16:47:28 79° N 18:56:43 23° ESE visible
04 Nov 8.5 21:08:18 10° NW 23:07:22 44° W 23:47:42 34° SW visible
05 Nov 8.4 15:46:49 10° W 17:14:28 80° NNE 19:11:58 25° ESE visible
05 Nov 8.5 21:26:16 10° NW 23:18:38 39° W 00:02:59 28° WSW visible
06 Nov 8.3 16:02:14 10° W 17:41:34 81° NNE 19:27:18 26° ESE visible
06 Nov 8.5 21:44:32 10° NW 23:29:28 35° W 00:18:22 23° WSW visible
07 Nov 8.3 16:17:43 10° W 18:07:05 83° NNE 19:42:45 27° SE visible
07 Nov 8.6 22:03:11 10° NW 23:39:56 31° WNW 00:33:51 18° WSW visible
08 Nov 8.2 16:33:18 10° W 18:30:22 86° NE 19:58:19 26° SE visible
08 Nov 10.1 22:22:22 10° NW 23:00:00 21° NW 23:00:00 21° NW visible
